Retour au catalogue

STARLINK-35649

ActifCommunicationsVLEO
NORAD 66125·PAYLOAD·🇺🇸 United States

Lancé Oct 22, 2025 depuis Vandenberg Space Force Base

Loading…

Prochains Passages (prochaines 24 heures)

TLE

FraisSource: CelesTrak SupGP

Époque: Sep 14, 2026, 14:52 UTC

1 66125C 25237M   26257.61993056 -.00031817  00000+0 -94040-3 0  2578
2 66125  53.1564 239.0195 0001238  95.8646 114.5742 15.34394747    19

Suivez STARLINK-35649 en temps réel avec AllMySat

Download on the App Store